Location: ????????
(55.6333°N, 37.7000°E)
Time: 02:22:33
(UTC+00:00)

Cosmos 773 Rocket - Pass Details

Date: 19 May 2025
Orbit: 742 x 772 km, 74.1° (Epoch: 13 June)

Event Time Altitude Azimuth Distance (km) Brightness Sun altitude
Exits shadow 20:11:32 - 214° (SW) 2,846 6.6 -12.8°
Reaches altitude 10° 20:13:02 10° 216° (SW) 2,262 6.1 -12.8°
Maximum altitude 20:18:09 71° 300° (WNW) 791 4.2 -13.1°
Drops below altitude 10° 20:23:17 10° 25° (NNE) 2,268 7.2 -13.3°
Sets 20:25:40 0° 28° (NNE) 3,196 8.0 -13.3°
